Location: D.A.R.C. Observatory
(36.7133°N, 120.8553°W)
Time: 11:29:33
(UTC-07:00)

Daily predictions for brighter satellites

Satellite Brightness Start Highest point End
(mag) Time Altitude Azimuth Time Altitude Azimuth Time Altitude Azimuth
CZ-3C R/B 4.4 17:56:05 10° WSW 19:58:18 49° SSW 20:09:13 10° ESE
Meteor 1-19 Rocket 4.2 20:00:28 10° N 20:06:08 85° E 20:11:42 10° S
Spot 2 Rocket 3.6 20:01:40 10° SSE 20:06:46 88° WSW 20:11:53 10° NNW
NOSS 3-4 (A) 4.3 20:00:59 10° NNW 20:07:42 45° NE 20:14:45 10° ESE
NOSS 3-4 (C) 4.3 20:01:06 10° NNW 20:07:49 45° NE 20:14:51 10° ESE
Cosmos 2297 Rocket 3.6 20:05:51 10° N 20:10:05 21° NE 20:14:17 10° ESE
Cosmos 1570 Rocket 4.1 20:08:20 10° S 20:13:30 56° ESE 20:18:39 10° NNE
CZ-4B DEB 2.9 20:12:53 10° SSE 20:16:06 58° ENE 20:19:20 10° N
Helios 1B rocket 3.8 20:17:10 10° N 20:21:06 44° WNW 20:25:01 10° SW
Meteor 2-16 Rocket 4.4 20:15:22 10° S 20:21:21 64° E 20:27:21 10° NNE
Cosmos 1821 Rocket 3.9 20:15:42 10° S 20:21:48 80° E 20:27:55 10° N
OAO 2 Rocket 3.7 20:17:55 10° WSW 20:22:44 49° SSE 20:27:31 11° E
Cosmos 1605 Rocket 4.3 20:18:46 10° SSE 20:24:48 48° E 20:30:48 10° NNE
NOSS 7 (E) 4.5 20:27:34 10° SSW 20:31:09 84° WNW 20:34:30 10° NNE
Cosmos 1975 3.7 20:28:35 10° SSE 20:32:08 29° E 20:35:43 10° NNE
Iridium 4 Rocket 4.3 20:29:01 10° NNE 20:33:23 28° E 20:36:38 14° SE
Cosmos 2219 4.3 20:28:33 10° NW 20:33:54 46° WSW 20:39:13 10° S
Okean 2 3.3 20:30:14 10° N 20:34:25 76° E 20:38:33 10° S
DELTA 2 R/B (1) 3.9 20:30:42 10° W 20:36:15 65° N 20:41:10 13° E
NOSS 7 (H) 4.2 20:37:39 10° SSW 20:40:57 66° ESE 20:44:13 10° NE
Lacrosse 5 rocket 2.5 20:40:24 10° NNW 20:43:28 24° NE 20:45:09 17° ENE
H-2A R/B 3.7 20:43:39 14° ENE 20:44:24 15° ENE 20:46:43 10° NNE
Cosmos 1697 Rocket 3.4 20:41:47 10° SSE 20:46:41 31° ESE 20:51:36 10° NE
H-2A R/B 2.8 20:44:28 10° S 20:48:18 84° WSW 20:52:15 10° NNW
ALOS 2.5 20:43:50 10° S 20:48:29 72° W 20:53:10 10° NNW
Cosmos 1892 Rocket 4.1 20:44:40 10° NNW 20:49:06 61° W 20:53:30 10° S
Cosmos 2278 3.8 20:43:27 10° SSW 20:49:07 84° WNW 20:54:51 10° NNE
Cosmos 1626 Rocket 3.9 20:46:00 10° N 20:50:12 43° E 20:52:45 21° SE
ERS-1 Rocket 3.5 20:47:45 19° SE 20:50:53 39° ENE 20:55:32 10° N
Cosmos 1455 Rocket 3.4 20:47:42 10° SSW 20:52:00 69° W 20:56:20 10° N
EO 1 Delta rocket 4.1 20:47:49 10° N 20:52:31 83° W 20:57:56 10° SSW
Cosmos 1461 2.9 20:51:56 10° NNW 20:55:56 58° ENE 20:57:43 29° SE
Cosmos 2123 Rocket 4.0 20:50:07 10° N 20:56:20 90° WSW 21:02:29 10° S
Cosmos 1898 Rocket 4.5 20:52:53 10° N 20:57:32 30° ENE 20:59:26 24° E
Cosmos 1602 Rocket 3.7 20:54:18 10° N 20:58:41 54° E 21:01:15 23° SSE
Meteor 1-12 Rocket 4.2 20:54:57 10° S 21:00:38 78° E 21:06:28 10° NNE
BREEZE-M DEB (TANK) 4.3 20:56:52 10° WSW 21:00:44 74° NNW 21:14:36 10° NE
Cosmos 2369 3.9 20:56:50 10° SSW 21:02:29 74° WNW 21:08:12 10° NNE
Cosmos 1939 Rocket 3.5 21:03:34 32° ESE 21:04:44 40° ENE 21:08:38 10° N
CZ-2D R/B 4.4 21:01:42 10° S 21:05:22 43° W 21:09:06 10° NNW
SL-24 R/B - RUBIN 2 4.2 21:02:00 10° SSW 21:07:40 73° ESE 21:14:02 10° NE
Cosmos 1980 Rocket 2.9 21:08:26 28° ESE 21:08:51 29° ESE 21:13:39 10° NE
Cosmos 1459 Rocket 4.3 21:05:51 21° SSE 21:09:23 41° E 21:15:01 10° NNE
Resurs 01 Rocket 4.4 21:07:23 10° SW 21:10:15 17° W 21:13:08 10° NW
Hubble Space Telescope 2.7 21:10:26 10° SW 21:13:09 17° SSW 21:13:46 16° S
Cosmos 468 Rocket 4.0 21:09:30 10° S 21:14:29 55° ESE 21:19:30 10° NNE
USA 186 3.4 21:13:12 11° SSW 21:15:54 31° W 21:18:37 10° NNW
Lacrosse 5 3.3 21:12:47 10° NNW 21:16:57 25° NE 21:18:37 21° ENE
Cosmos 2084 4.4 21:14:54 10° NNW 21:18:32 30° NE 21:18:58 30° ENE
Tiangong 1 2.8 21:16:55 10° WNW 21:19:34 25° N 21:20:22 22° NNE
OTV 4 0.6 21:17:08 10° W 21:19:48 65° WSW 21:19:48 65° WSW
SPOT 5 3.6 21:20:37 34° E 21:21:22 36° ENE 21:25:51 10° N
Cosmos 1153 Rocket 4.5 21:15:31 10° S 21:21:44 86° W 21:27:56 10° N
Cosmos 220 Rocket 3.8 21:18:06 10° NNW 21:22:19 75° ENE 21:23:17 51° SE
Cosmos 1814 Rocket 4.0 21:17:32 10° S 21:22:45 56° ESE 21:27:57 10° NNE
Cosmos 1346 Rocket 4.5 21:19:28 10° NNW 21:23:00 32° W 21:26:34 10° SSW
Delta 2 Rocket 4.2 21:21:43 10° W 21:27:08 54° SSW 21:28:23 43° SSE
Cosmos 1500 3.1 21:28:22 43° SSW 21:29:32 81° W 21:33:18 10° N
CZ-4 DEB 3.4 21:32:14 47° WSW 21:32:28 48° W 21:35:33 10° NNW
RESURS DK-1 3.6 21:31:07 10° N 21:34:13 29° NE 21:34:13 29° NE
Cosmos 1802 Rocket 4.0 21:32:30 32° SSE 21:35:24 60° E 21:41:43 10° NNE
Cosmos 2227 Rocket 2.9 21:33:19 10° NNW 21:38:45 50° WSW 21:42:03 23° S
Cosmos 1656 4.2 21:37:16 10° SW 21:42:49 60° WNW 21:48:20 10° NNE
Cosmos 858 Rocket 4.4 21:37:32 10° NNW 21:42:49 71° ENE 21:43:35 61° ESE
Cosmos 1340 4.2 21:42:46 10° N 21:44:44 26° NNE 21:44:44 26° NNE
Cosmos 2298 Rocket 4.0 21:43:02 10° NNW 21:48:23 83° WSW 21:49:30 57° S
Cosmos 2016 Rocket 3.8 21:52:14 55° SSE 21:53:31 70° E 21:59:38 10° NNE
Cosmos 2297 Rocket 2.8 21:48:57 10° NNW 21:54:25 52° WSW 21:56:28 35° SSW
SL-19 R/B 4.5 21:50:40 10° NNE 21:55:05 49° ENE 21:55:05 49° ENE
Envisat 3.3 21:54:39 44° SSW 21:56:04 62° WSW 22:01:07 10° NNW
YAOGAN 6 4.3 21:58:34 29° N 21:58:34 29° N 22:00:29 10° N
H-2A R/B 3.8 22:00:30 19° NE 22:00:30 19° NE 22:02:43 10° NNE
Terra 4.0 22:02:30 14° NE 22:02:30 14° NE 22:03:47 10° NNE
Cosmos 1743 3.8 22:03:30 44° NNW 22:03:30 44° NNW 22:06:26 10° N
Cosmos 1937 Rocket 3.4 21:58:44 10° NNW 22:04:02 88° ENE 22:04:02 88° ENE
ASTEX 1 3.4 22:00:52 10° N 22:05:29 76° NNE 22:05:29 76° NNE
Cosmos 2173 Rocket 4.3 22:02:01 22° SSW 22:06:19 67° W 22:12:39 10° N
OAO 2 Rocket 3.6 22:02:18 10° W 22:06:29 59° WSW 22:06:29 59° WSW
Cosmos 2098 Rocket 4.1 22:07:39 64° SE 22:08:25 70° E 22:14:37 10° NNE
Cosmos 1825 Rocket 4.1 22:06:04 10° NNW 22:09:39 55° NW 22:09:39 55° NW
Cosmos 2150 Rocket 4.5 22:10:07 10° NNW 22:15:06 52° WSW 22:15:23 51° WSW
USA 245 4.3 22:15:08 79° E 22:15:16 80° ENE 22:21:39 10° N
SPOT 1/Viking Rocket 3.9 22:18:31 59° NNE 22:18:31 59° NNE 22:22:50 10° N
MetOp-A 4.2 22:17:46 71° WSW 22:17:47 71° WSW 22:23:09 10° NNW
Cosmos 990 Rocket 4.2 22:14:24 10° NNW 22:18:54 66° NNW 22:18:54 66° NNW
H-2A R/B 3.4 22:20:48 35° WNW 22:20:48 35° WNW 22:23:55 10° NNW
Cosmos 1864 Rocket 4.5 22:21:48 68° NE 22:21:48 68° NE 22:27:15 10° N
Lacrosse 5 rocket 3.6 22:19:29 10° WNW 22:20:53 19° W 22:20:53 19° W
DELTA 2 R/B (1) 3.9 22:17:18 10° WNW 22:21:55 61° W 22:21:55 61° W
Tsikada Rocket 4.1 22:19:26 10° N 22:25:17 65° NE 22:25:17 65° NE
Cosmos 1697 Rocket 4.3 22:25:30 10° WSW 22:30:32 32° WNW 22:35:36 10° N
SL-16 R/B 4.1 22:39:10 19° NE 22:39:10 19° NE 22:40:41 10° NNE
Cosmos 1725 Rocket 4.4 22:52:03 59° WNW 22:52:03 59° WNW 22:57:56 10° N
ARGOS 4.1 22:53:54 44° NW 22:53:54 44° NW 22:57:52 10° NNW
Cosmos 1980 Rocket 3.6 22:50:00 23° WSW 22:52:40 35° WNW 22:57:53 10° N
Lacrosse 5 3.6 22:55:14 10° NW 22:57:49 29° WNW 22:57:49 29° WNW
USA 215 3.7 23:19:35 56° NNW 23:19:35 56° NNW 23:24:37 10° NW
Cosmos 2322 Rocket 4.0 23:26:55 27° N 23:26:55 27° N 23:29:31 10° N
Cosmos 2263 Rocket 3.9 23:19:03 10° NNW 23:21:38 27° N 23:21:38 27° N
Terra 4.4 23:41:24 17° NNW 23:41:24 17° NNW 23:42:34 10° NNW
H-2A R/B 4.3 23:41:08 19° NW 23:41:08 19° NW 23:42:45 10° NNW
